[[{"header":{"parameterUnit":"m.s-1","parameterCategory":1,"la1":30.2991,"la2":30.254,"lo1":-89.0895,"lo2":-89.0444,"dy":0.0017,"dx":0.0017,"nx":28,"ny":28,"refTime":"2026-02-06T09:00:00:Z","depth":0,"parameterNumber":2,"parameterNumberName":"U-component_of_WINDS"},"data":[0,0,0,0,0,0,0,0,0,0,0,0,0,0,0,0,0,0,0,0,0,0,0,0,0,0,0,0,0,0,0,0,0,0,0,0,0,0,0,0,0,0,0,0,0,0,0,0,0,0,0,0,0,0,0,0,0,0,-0.675,-0.675,0,-0.6693,-0.6692,-0.6692,-0.6638,-0.6638,-0.6637,-0.6636,-0.6577,-0.6576,-0.6575,0,0,0,0,0,0,0,0,0,0,0,0,0,-0.6812,-0.6811,-0.675,-0.675,-0.6749,-0.6693,-0.6692,-0.6692,-0.6638,-0.6638,-0.6637,-0.6636,-0.6577,-0.6576,-0.6575,0,0,0,0,0,0,0,0,0,0,0,0,0,-0.6773,-0.6811,-0.6751,-0.6716,-0.6712,-0.6693,-0.6692,-0.6691,-0.6639,-0.6638,-0.6637,-0.6636,-0.6577,-0.6576,-0.6575,-0.6585,0,0,-0.657,-0.6569,0,0,0,0,0,0,0,0,-0.6775,-0.6771,-0.6722,-0.6718,-0.6714,-0.6672,-0.6692,-0.6656,-0.6639,-0.6667,-0.6636,-0.6635,-0.6609,-0.6605,-0.6596,-0.6583,-0.658,-0.657,-0.6569,-0.6568,-0.6568,0,0,0,0,0,0,0,-0.6778,-0.6773,-0.6728,-0.6721,-0.6716,-0.6702,-0.6696,-0.6685,-0.6644,-0.6664,-0.666,-0.6654,-0.6607,-0.6598,-0.6595,-0.6579,-0.657,-0.6569,-0.6568,-0.6567,-0.657,-0.6571,0,0,0,0,0,0,-0.6786,-0.6775,-0.673,-0.6726,-0.6743,-0.6702,-0.6695,-0.6686,-0.6644,-0.6637,-0.6655,-0.6652,-0.6601,-0.6596,-0.6592,-0.6602,-0.6568,-0.6567,-0.6566,-0.6569,-0.657,-0.6571,0,0,0,0,0,0,-0.6788,-0.6783,-0.6732,-0.675,-0.6742,-0.6702,-0.6693,-0.6686,-0.6677,-0.6637,-0.6629,-0.6654,-0.66,-0.6594,-0.6587,-0.6599,-0.6566,-0.6565,-0.6568,-0.6569,-0.6571,-0.6621,0,0,0,0,0,0,-0.679,-0.6783,-0.6788,-0.675,-0.6741,-0.6729,-0.6694,-0.6685,-0.6675,-0.667,-0.6634,-0.6627,-0.6599,-0.659,-0.6586,-0.6596,-0.6564,-0.6567,-0.6569,-0.657,-0.6618,-0.6624,-0.6629,0,0,0,0,0,-0.6792,-0.6804,-0.6788,-0.6783,-0.6746,-0.673,-0.6724,-0.6692,-0.6676,-0.6679,-0.6654,-0.6628,-0.6598,-0.659,-0.6585,-0.6595,-0.6566,-0.6568,-0.657,-0.6616,-0.6623,-0.6629,0,0,0,0,0,0,-0.6844,-0.6799,-0.6781,-0.6781,-0.676,-0.6721,-0.6724,-0.6701,-0.6683,-0.668,-0.664,-0.6632,-0.663,-0.6611,-0.6602,-0.6602,-0.6578,-0.658,-0.6615,-0.6621,-0.6626,-0.6631,-0.6563,0,0,0,0,0,-0.6856,-0.6847,-0.6807,-0.6811,-0.6801,-0.6765,-0.6756,-0.6733,-0.6709,-0.67,-0.6674,-0.6651,-0.6636,-0.6627,-0.6612,-0.6615,-0.6606,-0.6619,-0.6625,-0.6629,-0.6631,-0.663,-0.6636,-0.6578,-0.6578,-0.6578,0,0,-0.688,-0.6854,-0.685,-0.6821,-0.6802,-0.6793,-0.6758,-0.675,-0.6742,-0.6698,-0.669,-0.667,-0.6642,-0.664,-0.6638,-0.6625,-0.6645,-0.6632,-0.6636,-0.6635,-0.6633,-0.6639,-0.6644,-0.658,-0.6579,-0.6579,0,0,-0.6919,-0.6898,-0.6899,-0.688,-0.6851,-0.6827,-0.6827,-0.6791,-0.6776,-0.6767,-0.6734,-0.6724,-0.67,-0.6681,-0.6668,-0.6698,-0.6674,-0.6694,-0.6723,-0.6723,-0.6727,-0.6731,-0.6742,-0.6746,-0.6696,-0.6696,-0.6696,0,-0.6952,-0.6937,-0.6903,-0.6896,-0.6884,-0.6844,-0.6844,-0.6827,-0.6795,-0.6787,-0.6773,-0.6741,-0.6719,-0.6712,-0.6719,-0.671,-0.6708,-0.6699,-0.6729,-0.6733,-0.6736,-0.6746,-0.675,-0.6699,-0.6698,-0.6698,-0.6698,0,-0.698,-0.697,-0.6974,-0.6944,-0.6932,-0.6929,-0.6893,-0.6885,-0.6862,-0.6839,-0.683,-0.6802,-0.678,-0.6776,-0.6754,-0.6765,-0.6758,-0.6737,-0.6712,-0.6745,-0.6753,-0.6756,-0.6703,-0.6702,-0.6701,-0.67,0,0,-0.7051,-0.7001,-0.7003,-0.6988,-0.6953,-0.6944,-0.6939,-0.6917,-0.6911,-0.6889,-0.6883,-0.6863,-0.6843,-0.6829,-0.6804,-0.6804,-0.6829,-0.6783,-0.6782,-0.6793,-0.6839,-0.6855,-0.686,-0.6812,-0.6813,-0.6813,-0.6841,0,-0.7084,-0.7073,-0.7041,-0.704,-0.703,-0.6991,-0.6986,-0.6963,-0.694,-0.6928,-0.6903,-0.6889,-0.6864,-0.6855,-0.6853,-0.6827,-0.6838,-0.6824,-0.6806,-0.6806,-0.6815,-0.6864,-0.6882,-0.691,-0.6844,-0.6845,-0.6845,0,-0.7122,-0.7103,-0.7101,-0.7065,-0.7059,-0.7056,-0.7033,-0.7022,-0.6994,-0.6978,-0.6961,-0.6933,-0.6925,-0.6901,-0.6888,-0.6879,-0.687,-0.6855,-0.6856,-0.6853,-0.6828,-0.6863,-0.6918,-0.6922,-0.685,-0.685,-0.6849,0,-0.7175,-0.7148,-0.7143,-0.7132,-0.709,-0.7088,-0.707,-0.7042,-0.7031,-0.701,-0.7002,-0.6981,-0.6969,-0.6953,-0.692,-0.6906,-0.691,-0.6884,-0.6896,-0.6897,-0.6899,-0.69,-0.6953,-0.6892,-0.6892,-0.6892,-0.6892,0,-0.7215,-0.7216,-0.7166,-0.7163,-0.7162,-0.7124,-0.7123,-0.7102,-0.7077,-0.7068,-0.7032,-0.7025,-0.6981,-0.6968,-0.6942,-0.6935,-0.693,-0.6916,-0.6909,-0.6919,-0.6921,-0.6913,-0.691,-0.6893,-0.6893,-0.6893,-0.6893,0,-0.7274,-0.7241,-0.7233,-0.7194,-0.7184,-0.7184,-0.715,-0.7145,-0.712,-0.7109,-0.7105,-0.7065,-0.7048,-0.7013,-0.6986,-0.6968,-0.6968,-0.6955,-0.6977,-0.6973,-0.6987,-0.6986,-0.7037,-0.7042,-0.6978,-0.6979,-0.698,0,-0.7303,-0.7302,-0.7262,-0.7254,-0.7238,-0.7225,-0.7213,-0.7175,-0.7164,-0.7133,-0.7131,-0.7111,-0.7094,-0.7068,-0.7036,-0.7015,-0.7002,-0.7022,-0.6999,-0.7009,-0.7003,-0.7003,-0.7003,-0.7027,-0.7028,-0.7029,-0.7029,0,-0.7357,-0.7341,-0.7325,-0.7304,-0.7291,-0.7272,-0.7251,-0.7246,-0.7203,-0.7192,-0.7175,-0.7161,-0.7133,-0.7114,-0.7088,-0.7068,-0.7042,-0.7036,-0.7038,-0.7049,-0.7062,-0.7055,-0.6991,-0.7036,-0.7035,-0.7035,-0.7034,-0.7034,-0.7402,-0.7399,-0.737,-0.7354,-0.7334,-0.7315,-0.7309,-0.7282,-0.7267,-0.7242,-0.722,-0.7204,-0.7175,-0.7138,-0.712,-0.7106,-0.7093,-0.7096,-0.7096,-0.7098,-0.7102,-0.7064,-0.7101,-0.7101,-0.7101,-0.7101,-0.7101,0,-0.7454,-0.7434,-0.7419,-0.7391,-0.7378,-0.7354,-0.7329,-0.7319,-0.7306,-0.7282,-0.7265,-0.7244,-0.7224,-0.719,-0.7168,-0.7163,-0.715,-0.7159,-0.7159,-0.7155,-0.7115,-0.7116,-0.717,-0.717,-0.717,-0.717,-0.717,-0.7169,-0.748,-0.7474,-0.7454,-0.7437,-0.7416,-0.74,-0.7388,-0.737,-0.735,-0.7329,-0.7313,-0.7291,-0.7262,-0.7237,-0.7218,-0.7208,-0.7201,-0.7214,-0.72,-0.7164,-0.7158,-0.7152,-0.7152,-0.7213,-0.7213,-0.7241,-0.7241,-0.7242]},{"header":{"parameterUnit":"m.s-1","parameterCategory":1,"la1":30.2991,"la2":30.254,"lo1":-89.0895,"lo2":-89.0444,"dy":0.0017,"dx":0.0017,"nx":28,"ny":28,"refTime":"2026-02-06T09:00:00:Z","depth":0,"parameterNumber":3,"parameterNumberName":"V-component_of_WINDS"},"data":[0,0,0,0,0,0,0,0,0,0,0,0,0,0,0,0,0,0,0,0,0,0,0,0,0,0,0,0,0,0,0,0,0,0,0,0,0,0,0,0,0,0,0,0,0,0,0,0,0,0,0,0,0,0,0,0,0,0,-4.7066,-4.7067,0,-4.7136,-4.7137,-4.7137,-4.7133,-4.7132,-4.7131,-4.713,-4.7195,-4.7198,-4.7201,0,0,0,0,0,0,0,0,0,0,0,0,0,-4.6924,-4.6927,-4.7066,-4.7067,-4.7068,-4.7136,-4.7137,-4.7137,-4.7133,-4.7132,-4.7131,-4.7129,-4.7195,-4.7198,-4.7201,0,0,0,0,0,0,0,0,0,0,0,0,0,-4.6989,-4.6928,-4.7066,-4.7074,-4.7075,-4.7135,-4.7137,-4.7138,-4.7133,-4.7132,-4.713,-4.7129,-4.7193,-4.7197,-4.7201,-4.7256,0,0,-4.7214,-4.7215,0,0,0,0,0,0,0,0,-4.6985,-4.6994,-4.7072,-4.7073,-4.7075,-4.7124,-4.7111,-4.7177,-4.7134,-4.7111,-4.713,-4.7128,-4.7173,-4.7178,-4.7194,-4.7259,-4.7262,-4.7214,-4.7216,-4.7218,-4.7219,0,0,0,0,0,0,0,-4.6981,-4.6991,-4.7093,-4.7073,-4.7075,-4.7072,-4.708,-4.7123,-4.7149,-4.7113,-4.7113,-4.7121,-4.7173,-4.7191,-4.7196,-4.7263,-4.7214,-4.7217,-4.722,-4.7221,-4.7379,-4.7381,0,0,0,0,0,0,-4.6975,-4.6987,-4.7091,-4.7095,-4.7026,-4.7076,-4.7085,-4.711,-4.7149,-4.7153,-4.7123,-4.7121,-4.7184,-4.7191,-4.7198,-4.7267,-4.7218,-4.7222,-4.7224,-4.7378,-4.738,-4.7382,0,0,0,0,0,0,-4.6972,-4.6985,-4.7088,-4.7041,-4.7055,-4.708,-4.7109,-4.7112,-4.7129,-4.7156,-4.716,-4.7136,-4.7183,-4.7192,-4.7243,-4.727,-4.7224,-4.7227,-4.7376,-4.7378,-4.7381,-4.7405,0,0,0,0,0,0,-4.6968,-4.6983,-4.7005,-4.7042,-4.7057,-4.7133,-4.711,-4.7114,-4.7137,-4.7136,-4.717,-4.7174,-4.7183,-4.7237,-4.7247,-4.7274,-4.7231,-4.7373,-4.7377,-4.738,-4.7402,-4.7408,-4.7413,0,0,0,0,0,-4.6963,-4.7007,-4.7007,-4.7019,-4.7085,-4.7135,-4.7143,-4.7154,-4.7139,-4.7161,-4.7179,-4.7173,-4.7265,-4.7242,-4.7253,-4.7282,-4.7372,-4.7376,-4.738,-4.7399,-4.7407,-4.7413,0,0,0,0,0,0,-4.697,-4.7012,-4.7012,-4.707,-4.7099,-4.7134,-4.7162,-4.7162,-4.7194,-4.7191,-4.7202,-4.7209,-4.7261,-4.7276,-4.725,-4.7339,-4.7316,-4.7323,-4.7327,-4.7335,-4.734,-4.7336,-4.7234,0,0,0,0,0,-4.6979,-4.7018,-4.7051,-4.7099,-4.7114,-4.7136,-4.7157,-4.7164,-4.7194,-4.7206,-4.7227,-4.7254,-4.729,-4.7313,-4.7346,-4.7404,-4.7412,-4.7429,-4.7435,-4.744,-4.7445,-4.7479,-4.7488,-4.7395,-4.7395,-4.7395,0,0,-4.6997,-4.7024,-4.7047,-4.7101,-4.7125,-4.7164,-4.7146,-4.7187,-4.7215,-4.7211,-4.7262,-4.7278,-4.7309,-4.7365,-4.739,-4.7379,-4.7473,-4.7445,-4.7448,-4.7451,-4.7484,-4.7493,-4.7501,-4.7398,-4.7397,-4.7397,0,0,-4.7049,-4.7074,-4.7118,-4.7143,-4.718,-4.7194,-4.7205,-4.7241,-4.7252,-4.7303,-4.7302,-4.7335,-4.7395,-4.7419,-4.7439,-4.7503,-4.7499,-4.7513,-4.7544,-4.7577,-4.7584,-4.759,-4.7615,-4.7624,-4.7519,-4.7519,-4.7519,0,-4.7066,-4.7126,-4.7139,-4.7183,-4.7207,-4.7207,-4.7252,-4.7274,-4.7319,-4.7336,-4.7323,-4.7401,-4.7422,-4.7484,-4.75,-4.7515,-4.7528,-4.751,-4.7582,-4.7589,-4.7595,-4.7619,-4.7628,-4.752,-4.752,-4.752,-4.752,0,-4.7146,-4.7188,-4.7218,-4.7266,-4.7293,-4.7336,-4.7356,-4.7381,-4.7386,-4.7401,-4.7454,-4.748,-4.752,-4.7535,-4.7538,-4.7598,-4.7591,-4.758,-4.7558,-4.7605,-4.7628,-4.7637,-4.7523,-4.7522,-4.7522,-4.7521,0,0,-4.7204,-4.7261,-4.7272,-4.7295,-4.7337,-4.7369,-4.7412,-4.7454,-4.7477,-4.7508,-4.7545,-4.7598,-4.7589,-4.7612,-4.7618,-4.7646,-4.7699,-4.7633,-4.7633,-4.7646,-4.7768,-4.7777,-4.7787,-4.7696,-4.7698,-4.7699,-4.7766,0,-4.7263,-4.7343,-4.7357,-4.7426,-4.7466,-4.7468,-4.7506,-4.7535,-4.7551,-4.7586,-4.7602,-4.7641,-4.7625,-4.764,-4.7668,-4.7686,-4.7723,-4.7681,-4.7731,-4.7732,-4.7725,-4.7799,-4.7808,-4.787,-4.7775,-4.7776,-4.7777,0,-4.7342,-4.7379,-4.7453,-4.7493,-4.751,-4.7544,-4.7585,-4.7619,-4.7652,-4.7662,-4.7689,-4.7692,-4.7736,-4.7712,-4.7774,-4.7745,-4.7766,-4.7778,-4.778,-4.7786,-4.7759,-4.7809,-4.789,-4.79,-4.7791,-4.779,-4.7789,0,-4.738,-4.7448,-4.7502,-4.7521,-4.7568,-4.7592,-4.7612,-4.7645,-4.767,-4.7705,-4.7722,-4.776,-4.7782,-4.7811,-4.7825,-4.7805,-4.7887,-4.7862,-4.7896,-4.7896,-4.7914,-4.7913,-4.8002,-4.7925,-4.7924,-4.7924,-4.7924,0,-4.7445,-4.749,-4.7521,-4.7554,-4.7605,-4.7621,-4.7671,-4.769,-4.772,-4.7756,-4.7758,-4.7792,-4.7808,-4.7844,-4.7854,-4.7905,-4.7914,-4.7923,-4.7925,-4.7924,-4.7923,-4.7939,-4.7935,-4.7927,-4.7926,-4.7926,-4.7925,0,-4.7496,-4.7518,-4.7578,-4.7618,-4.763,-4.7666,-4.77,-4.7732,-4.7749,-4.7795,-4.7807,-4.7832,-4.7875,-4.7892,-4.7942,-4.795,-4.8009,-4.8007,-4.7999,-4.8,-4.8034,-4.8031,-4.8137,-4.8152,-4.8063,-4.8064,-4.8065,0,-4.7537,-4.7573,-4.7619,-4.7645,-4.7667,-4.7708,-4.7736,-4.7752,-4.778,-4.7822,-4.785,-4.7893,-4.7929,-4.7997,-4.8019,-4.8058,-4.8059,-4.8093,-4.8064,-4.8063,-4.8062,-4.806,-4.8065,-4.8098,-4.8099,-4.81,-4.8101,0,-4.7608,-4.7618,-4.7658,-4.7703,-4.7736,-4.7771,-4.7805,-4.7826,-4.7847,-4.7878,-4.7924,-4.7952,-4.8006,-4.805,-4.8091,-4.811,-4.811,-4.811,-4.812,-4.8119,-4.8114,-4.812,-4.8016,-4.8107,-4.8106,-4.8106,-4.8106,-4.8105,-4.7657,-4.769,-4.7729,-4.7774,-4.7802,-4.7835,-4.7868,-4.789,-4.7929,-4.7977,-4.7984,-4.8033,-4.8067,-4.8123,-4.8144,-4.8182,-4.8173,-4.8187,-4.8191,-4.8195,-4.8198,-4.8107,-4.8189,-4.8189,-4.8189,-4.8188,-4.8188,0,-4.773,-4.7756,-4.7797,-4.7847,-4.7883,-4.7881,-4.7919,-4.7949,-4.7993,-4.8026,-4.8063,-4.8116,-4.8158,-4.8185,-4.8227,-4.8253,-4.8254,-4.8264,-4.8263,-4.8268,-4.8203,-4.8191,-4.8263,-4.8263,-4.8262,-4.8262,-4.8262,-4.8262,-4.7772,-4.7829,-4.7844,-4.7916,-4.794,-4.7991,-4.8013,-4.8043,-4.807,-4.8131,-4.8167,-4.8185,-4.8216,-4.8261,-4.83,-4.8307,-4.8323,-4.8334,-4.834,-4.8279,-4.8272,-4.8264,-4.8253,-4.8337,-4.8337,-4.8402,-4.8402,-4.8403]}]]